World > North America > United States > Missouri > Worthington  

Worthington, MO Hourly Weather Updates

Feedback E-mail the Weather

Quick WX

Worthington, MO Weather Maps

°F °C°F °C
Worthington Weather Map
UTC Time: 2/23/2024, 11:10
Your Time:

Worthington, MO Regional Weather

Expires:202402231200;;556171
ASUS43 KEAX 231110
RWREAX

WEATHER ROUNDUP FOR EASTERN KANSAS AND NORTHWEST MISSOURI
NATIONAL WEATHER SERVICE KANSAS CITY/PLEASANT HILL MO
500 AM CST FRI FEB 23 2024


MOZ001>008-011>017-020>025-030>033-038>040-044>046-053-054-231200-
...NORTHERN AND CENTRAL MISSOURI...
  
CITY           SKY/WX    TMP DP  RH WIND       PRES   REMARKS
ST. JOSEPH     CLEAR     31  29  92 S5        29.93F WCI  26          
MOSBY            N/A     36  28  75 W3        29.93S                  
HARRISONVILLE  CLEAR     41  32  70 NW5       29.97R                  
WHITEMAN AFB   CLEAR     41  29  62 NW7       29.90R                  
CLINTON        CLEAR     39  32  75 CALM      29.93R                  
SEDALIA        CLEAR     41  30  65 NW9       29.92R                  
MARSHALL       CLEAR     36  32  87 NW7       29.92R WCI  30          
CHILLICOTHE      N/A     37  29  72 NW3       29.91S                  
MOBERLY        CLEAR     37  30  75 NW8       29.88R WCI  31          
KIRKSVILLE     CLEAR     33  27  78 W6        29.87S WCI  28          

$$


SKY/WX - Weather  TMP - Temperature  DP - Dew Point  RH - Humidity
WIND - Wind Direction/Speed PRES - Barometric Pressure VSB - Visibility
WCI - Wind Chill Index E13G22 Wind - East Wind 13 mph/Gusts of 22 mph

Trending Headlines

Trending Entertainment Headlines

Worthington Radar Loop

Use the map search tool if you want to place a location marker on the radar map...

Worthington Quick Facts

National Two Day Weather Forecast


E-mail the Worthington Weather Forecast

Voice your opinion or tell us about page issues...